Year,Month,Day,Hour,Minute,Value (Times are PST for temperature in C)
2012,07,12,06,59,10.40
2012,07,12,07,00,10.40
2012,07,12,07,01,10.40
2012,07,12,07,02,10.40
2012,07,12,07,03,10.40
2012,07,12,07,04,10.40
2012,07,12,07,05,10.40
2012,07,12,07,06,10.40
2012,07,12,07,07,10.40
2012,07,12,07,08,10.40
2012,07,12,07,09,10.40
2012,07,12,07,10,10.40
2012,07,12,07,11,10.40
2012,07,12,07,12,10.60
2012,07,12,07,13,10.60
2012,07,12,07,14,10.60
2012,07,12,07,15,10.60
2012,07,12,07,16,10.60
2012,07,12,07,17,10.60
2012,07,12,07,18,10.60
2012,07,12,07,19,10.60
2012,07,12,07,20,10.60
2012,07,12,07,21,10.70
2012,07,12,07,22,10.70
2012,07,12,07,23,10.70
2012,07,12,07,24,10.80
2012,07,12,07,25,10.80
2012,07,12,07,26,10.80
2012,07,12,07,27,10.80
2012,07,12,07,28,10.70
2012,07,12,07,29,10.70
2012,07,12,07,30,10.60
2012,07,12,07,31,10.60
2012,07,12,07,32,10.60
2012,07,12,07,33,10.60
2012,07,12,07,34,10.60
2012,07,12,07,35,10.60
2012,07,12,07,36,10.60
2012,07,12,07,37,10.60
2012,07,12,07,38,10.60
2012,07,12,07,39,10.60
2012,07,12,07,40,10.60
2012,07,12,07,41,10.60
2012,07,12,07,42,10.60
2012,07,12,07,43,10.60
2012,07,12,07,44,10.60
2012,07,12,07,45,10.60
2012,07,12,07,46,10.70
2012,07,12,07,47,10.70
2012,07,12,07,48,10.70
2012,07,12,07,49,10.70
2012,07,12,07,50,10.70
2012,07,12,07,51,10.70
2012,07,12,07,52,10.70
2012,07,12,07,53,10.70
2012,07,12,07,54,10.80
2012,07,12,07,55,10.70
2012,07,12,07,56,10.70
2012,07,12,07,57,10.70
2012,07,12,07,58,10.70
2012,07,12,07,59,10.70
2012,07,12,08,00,10.70
2012,07,12,08,01,10.80
2012,07,12,08,02,10.90
2012,07,12,08,03,10.90
2012,07,12,08,04,10.90
2012,07,12,08,05,10.90
2012,07,12,08,06,10.90
2012,07,12,08,07,10.80
2012,07,12,08,08,10.80
2012,07,12,08,09,10.70
2012,07,12,08,10,10.70
2012,07,12,08,11,10.70
2012,07,12,08,12,10.70
2012,07,12,08,13,10.70
2012,07,12,08,14,10.80
2012,07,12,08,15,10.80
2012,07,12,08,16,10.80
2012,07,12,08,17,10.90
2012,07,12,08,18,10.90
2012,07,12,08,19,10.90
2012,07,12,08,20,10.90
2012,07,12,08,21,10.90
2012,07,12,08,22,10.90
2012,07,12,08,23,10.90
2012,07,12,08,24,10.90
2012,07,12,08,25,10.90
2012,07,12,08,26,10.80
2012,07,12,08,27,10.80
2012,07,12,08,28,10.80
2012,07,12,08,29,10.90
2012,07,12,08,30,10.90
2012,07,12,08,31,10.90
2012,07,12,08,32,10.90
2012,07,12,08,33,10.90
2012,07,12,08,34,10.90
2012,07,12,08,35,10.90
2012,07,12,08,36,10.90
2012,07,12,08,37,10.90
2012,07,12,08,38,10.90
2012,07,12,08,39,10.90
2012,07,12,08,40,11.00
2012,07,12,08,41,11.10
2012,07,12,08,42,11.10
2012,07,12,08,43,11.10
2012,07,12,08,44,11.10
2012,07,12,08,45,11.10
2012,07,12,08,46,11.20
2012,07,12,08,47,11.20
2012,07,12,08,48,11.20
2012,07,12,08,49,11.30
2012,07,12,08,50,11.30
2012,07,12,08,51,11.30
2012,07,12,08,52,11.30
2012,07,12,08,53,11.40
2012,07,12,08,54,11.40
2012,07,12,08,55,11.40
2012,07,12,08,56,11.40
2012,07,12,08,57,11.50
2012,07,12,08,58,11.60
2012,07,12,08,59,11.60
2012,07,12,09,00,11.60
2012,07,12,09,01,11.60
2012,07,12,09,02,11.60
2012,07,12,09,03,11.60
2012,07,12,09,04,11.60
2012,07,12,09,05,11.70
2012,07,12,09,06,11.70
2012,07,12,09,07,11.70
2012,07,12,09,08,11.80
2012,07,12,09,09,11.80
2012,07,12,09,10,11.80
2012,07,12,09,11,11.80
2012,07,12,09,12,11.90
2012,07,12,09,13,11.90
2012,07,12,09,14,11.90
2012,07,12,09,15,11.90
2012,07,12,09,16,11.90
2012,07,12,09,17,11.80
2012,07,12,09,18,11.80
2012,07,12,09,19,11.80
2012,07,12,09,20,11.80
2012,07,12,09,21,11.80
2012,07,12,09,22,11.80
2012,07,12,09,23,11.80
2012,07,12,09,24,11.80
2012,07,12,09,25,11.80
2012,07,12,09,26,11.90
2012,07,12,09,27,11.90
2012,07,12,09,28,12.00
2012,07,12,09,29,12.00
2012,07,12,09,30,12.00
2012,07,12,09,31,11.90
2012,07,12,09,32,11.90
2012,07,12,09,33,11.80
2012,07,12,09,34,11.80
2012,07,12,09,35,11.80
2012,07,12,09,36,11.80
2012,07,12,09,37,11.80
2012,07,12,09,38,11.80
2012,07,12,09,39,11.80
2012,07,12,09,40,11.80
2012,07,12,09,41,11.80
2012,07,12,09,42,11.90
2012,07,12,09,43,11.90
2012,07,12,09,44,11.90
2012,07,12,09,45,11.90
2012,07,12,09,46,11.90
2012,07,12,09,47,11.80
2012,07,12,09,48,11.80
2012,07,12,09,49,11.80
2012,07,12,09,50,11.80
2012,07,12,09,51,11.80
2012,07,12,09,52,11.80
2012,07,12,09,53,11.80
2012,07,12,09,54,11.90
2012,07,12,09,55,11.90
2012,07,12,09,56,11.90
2012,07,12,09,57,11.90
2012,07,12,09,58,12.00
2012,07,12,09,59,12.10
2012,07,12,10,00,12.10
2012,07,12,10,01,12.00
2012,07,12,10,02,12.00
2012,07,12,10,03,12.00
2012,07,12,10,04,12.00
2012,07,12,10,05,12.00
2012,07,12,10,06,11.90
2012,07,12,10,07,11.90
2012,07,12,10,08,11.90
2012,07,12,10,09,12.00
2012,07,12,10,10,12.10
2012,07,12,10,11,12.10
2012,07,12,10,12,12.00
2012,07,12,10,13,12.00
2012,07,12,10,14,12.10
2012,07,12,10,15,12.20
2012,07,12,10,16,12.20
2012,07,12,10,17,12.20
2012,07,12,10,18,12.30
2012,07,12,10,19,12.30
2012,07,12,10,20,12.30
2012,07,12,10,21,12.20
2012,07,12,10,22,12.20
2012,07,12,10,23,12.30
2012,07,12,10,24,12.30
2012,07,12,10,25,12.30
2012,07,12,10,26,12.30
2012,07,12,10,27,12.30
2012,07,12,10,28,12.30
2012,07,12,10,29,12.30
2012,07,12,10,30,12.30
2012,07,12,10,31,12.40
2012,07,12,10,32,12.50
2012,07,12,10,33,12.60
2012,07,12,10,34,12.60
2012,07,12,10,35,12.70
2012,07,12,10,36,12.70
2012,07,12,10,37,12.80
2012,07,12,10,38,12.80
2012,07,12,10,39,12.80
2012,07,12,10,40,12.90
2012,07,12,10,41,12.90
2012,07,12,10,42,13.00
2012,07,12,10,43,13.00
2012,07,12,10,44,12.90
2012,07,12,10,45,12.90
2012,07,12,10,46,12.90
2012,07,12,10,47,12.90
2012,07,12,10,48,13.00
2012,07,12,10,49,13.00
2012,07,12,10,50,13.00
2012,07,12,10,51,13.00
2012,07,12,10,52,13.10
2012,07,12,10,53,13.10
2012,07,12,10,54,13.20
2012,07,12,10,55,13.30
2012,07,12,10,56,13.40
2012,07,12,10,57,13.50
2012,07,12,10,58,13.60
2012,07,12,10,59,13.70
2012,07,12,11,00,13.90
2012,07,12,11,01,13.90
2012,07,12,11,02,13.90
2012,07,12,11,03,14.00
2012,07,12,11,04,14.00
2012,07,12,11,05,14.10
2012,07,12,11,06,14.10
2012,07,12,11,07,14.20
2012,07,12,11,08,14.20
2012,07,12,11,09,14.30
2012,07,12,11,10,14.30
2012,07,12,11,11,14.50
2012,07,12,11,12,14.50
2012,07,12,11,13,14.50
2012,07,12,11,14,14.50
2012,07,12,11,15,14.40
2012,07,12,11,16,14.40
2012,07,12,11,17,14.40
2012,07,12,11,18,14.30
2012,07,12,11,19,14.30
2012,07,12,11,20,14.20
2012,07,12,11,21,14.20
2012,07,12,11,22,14.10
2012,07,12,11,23,14.00
2012,07,12,11,24,13.90
2012,07,12,11,25,13.90
2012,07,12,11,26,13.80
2012,07,12,11,27,13.70
2012,07,12,11,28,13.60
2012,07,12,11,29,13.60
2012,07,12,11,30,13.60
2012,07,12,11,31,13.70
2012,07,12,11,32,13.60
2012,07,12,11,33,13.60
2012,07,12,11,34,13.60
2012,07,12,11,35,13.50
2012,07,12,11,36,13.50
2012,07,12,11,37,13.50
2012,07,12,11,38,13.60
2012,07,12,11,39,13.60
2012,07,12,11,40,13.70
2012,07,12,11,41,13.70
2012,07,12,11,42,13.70
2012,07,12,11,43,13.80
2012,07,12,11,44,13.80
2012,07,12,11,45,13.90
2012,07,12,11,46,14.00
2012,07,12,11,47,14.00
2012,07,12,11,48,13.90
2012,07,12,11,49,13.90
2012,07,12,11,50,14.00
2012,07,12,11,51,14.10
2012,07,12,11,52,14.20
2012,07,12,11,53,14.20
2012,07,12,11,54,14.30
2012,07,12,11,55,14.40
2012,07,12,11,56,14.40
2012,07,12,11,57,14.50
2012,07,12,11,58,14.50
2012,07,12,11,59,14.40
2012,07,12,12,00,14.30
2012,07,12,12,01,14.30
2012,07,12,12,02,14.20
2012,07,12,12,03,14.10
2012,07,12,12,04,14.10
2012,07,12,12,05,14.10
2012,07,12,12,06,14.10
2012,07,12,12,07,14.20
2012,07,12,12,08,14.20
2012,07,12,12,09,14.10
2012,07,12,12,10,14.10
2012,07,12,12,11,14.00
2012,07,12,12,12,13.90
2012,07,12,12,13,13.80
2012,07,12,12,14,13.70
2012,07,12,12,15,13.70
2012,07,12,12,16,13.70
2012,07,12,12,17,13.70
2012,07,12,12,18,13.70
2012,07,12,12,19,13.60
2012,07,12,12,20,13.70
2012,07,12,12,21,13.70
2012,07,12,12,22,13.70
2012,07,12,12,23,13.80
2012,07,12,12,24,13.80
2012,07,12,12,25,13.70
2012,07,12,12,26,13.70
2012,07,12,12,27,13.70
2012,07,12,12,28,13.80
2012,07,12,12,29,13.70
2012,07,12,12,30,13.60
2012,07,12,12,31,13.60
2012,07,12,12,32,13.70
2012,07,12,12,33,13.70
2012,07,12,12,34,13.70
2012,07,12,12,35,13.90
2012,07,12,12,36,14.00
2012,07,12,12,37,14.10
2012,07,12,12,38,14.10
2012,07,12,12,39,14.10
2012,07,12,12,40,14.20
2012,07,12,12,41,14.20
2012,07,12,12,42,14.20
2012,07,12,12,43,14.20
2012,07,12,12,44,14.30
2012,07,12,12,45,14.30
2012,07,12,12,46,14.30
2012,07,12,12,47,14.30
2012,07,12,12,48,14.20
2012,07,12,12,49,14.30
2012,07,12,12,50,14.30
2012,07,12,12,51,14.50
2012,07,12,12,52,14.50
2012,07,12,12,53,14.60
2012,07,12,12,54,14.50
2012,07,12,12,55,14.40
2012,07,12,12,56,14.30
2012,07,12,12,57,14.30
2012,07,12,12,58,14.40
2012,07,12,12,59,14.50
2012,07,12,13,00,14.60
2012,07,12,13,01,14.50
2012,07,12,13,02,14.50
2012,07,12,13,03,14.50
2012,07,12,13,04,14.50
2012,07,12,13,05,14.50
2012,07,12,13,06,14.50
2012,07,12,13,07,14.50
2012,07,12,13,08,14.50
2012,07,12,13,09,14.50
2012,07,12,13,10,14.50
2012,07,12,13,11,14.50
2012,07,12,13,12,14.50
